• In Uzbekistan
  • List of Countries
  • For 7 days
  • Water Temperature
  • Weather Map
  • Weather Widgets
  • user-avatar
    Login

    Hourly Weather Kanye

    Today, 27 January, Monday

    Time Temperature Precipitation Wind Pressure Humidity
    00:00 +21°C° 0 mm 3 mps 651 mmHg 61%
    01:00 +20°C° 0 mm 4 mps 651 mmHg 58%
    02:00 +19°C° 0 mm 4 mps 651 mmHg 59%
    03:00 +18°C° 0 mm 4 mps 651 mmHg 58%
    04:00 +18°C° 0 mm 4 mps 650 mmHg 56%
    05:00 +17°C° 0 mm 4 mps 650 mmHg 55%
    06:00 +18°C° 0 mm 4 mps 651 mmHg 48%
    07:00 +19°C° 0 mm 3 mps 652 mmHg 42%
    08:00 +21°C° 0 mm 3 mps 653 mmHg 37%
    09:00 +24°C° 0 mm 3 mps 653 mmHg 33%
    10:00 +27°C° 0 mm 2 mps 654 mmHg 28%
    11:00 +29°C° 0 mm 1 mps 654 mmHg 24%
    12:00 +30°C° 0 mm 2 mps 654 mmHg 21%
    13:00 +31°C° 0 mm 2 mps 653 mmHg 17%
    14:00 +31°C° 0 mm 3 mps 654 mmHg 17%
    15:00 +31°C° 0 mm 3 mps 653 mmHg 17%
    16:00 +31°C° 0 mm 3 mps 653 mmHg 16%
    17:00 +31°C° 0 mm 3 mps 652 mmHg 15%
    18:00 +29°C° 0 mm 3 mps 652 mmHg 17%
    19:00 +27°C° 0 mm 3 mps 651 mmHg 20%
    20:00 +25°C° 0 mm 3 mps 651 mmHg 23%
    21:00 +24°C° 0 mm 2 mps 651 mmHg 23%
    22:00 +23°C° 0 mm 2 mps 651 mmHg 24%
    23:00 +22°C° 0 mm 1 mps 651 mmHg 24%

    Tomorrow, 28 January, Tuesday

    Time Temperature Precipitation Wind Pressure Humidity
    00:00 +22°C° 0 mm 1 mps 651 mmHg 26%
    01:00 +21°C° 0 mm 1 mps 651 mmHg 27%
    02:00 +20°C° 0 mm 1 mps 651 mmHg 28%
    03:00 +19°C° 0 mm 2 mps 651 mmHg 43%
    04:00 +18°C° 0 mm 2 mps 651 mmHg 57%
    05:00 +17°C° 0 mm 2 mps 651 mmHg 71%
    06:00 +19°C° 0 mm 3 mps 651 mmHg 74%
    07:00 +20°C° 0 mm 4 mps 652 mmHg 76%
    08:00 +21°C° 0 mm 4 mps 653 mmHg 79%
    09:00 +22°C° 0 mm 4 mps 653 mmHg 75%
    10:00 +23°C° 0 mm 4 mps 653 mmHg 70%
    11:00 +25°C° 0 mm 4 mps 653 mmHg 65%
    12:00 +27°C° 0 mm 3 mps 653 mmHg 56%
    13:00 +29°C° 0 mm 3 mps 653 mmHg 47%
    14:00 +31°C° 0 mm 2 mps 653 mmHg 38%
    15:00 +31°C° 0 mm 2 mps 652 mmHg 36%
    16:00 +32°C° 0 mm 2 mps 652 mmHg 33%
    17:00 +32°C° 0 mm 2 mps 652 mmHg 30%
    18:00 +30°C° 0 mm 2 mps 651 mmHg 35%
    19:00 +28°C° 0 mm 2 mps 651 mmHg 39%
    20:00 +26°C° 0 mm 3 mps 650 mmHg 44%
    21:00 +25°C° 0 mm 3 mps 650 mmHg 44%
    22:00 +25°C° 0 mm 3 mps 651 mmHg 44%
    23:00 +24°C° 0 mm 3 mps 651 mmHg 44%

    Day after tomorrow, 29 January, Wednesday

    Time Temperature Precipitation Wind Pressure Humidity
    00:00 +24°C° 0 mm 3 mps 651 mmHg 50%
    01:00 +22°C° 0 mm 3 mps 650 mmHg 56%
    02:00 +21°C° 0 mm 4 mps 650 mmHg 61%
    03:00 +21°C° 0 mm 3 mps 650 mmHg 63%
    04:00 +20°C° 0 mm 3 mps 650 mmHg 65%
    05:00 +20°C° 0 mm 2 mps 650 mmHg 66%
    06:00 +21°C° 0 mm 3 mps 651 mmHg 62%
    07:00 +23°C° 0 mm 4 mps 652 mmHg 58%
    08:00 +25°C° 0 mm 4 mps 652 mmHg 53%
    09:00 +27°C° 0 mm 4 mps 653 mmHg 47%
    10:00 +30°C° 0 mm 4 mps 653 mmHg 40%
    11:00 +33°C° 0 mm 4 mps 654 mmHg 33%
    12:00 +34°C° 0 mm 4 mps 654 mmHg 28%
    13:00 +35°C° 0 mm 3 mps 653 mmHg 23%
    14:00 +36°C° 0 mm 2 mps 653 mmHg 18%
    15:00 +36°C° 0 mm 2 mps 652 mmHg 18%
    16:00 +35°C° 0 mm 2 mps 652 mmHg 19%
    17:00 +35°C° 0 mm 2 mps 652 mmHg 19%
    18:00 +32°C° 0 mm 2 mps 651 mmHg 23%
    19:00 +30°C° 0 mm 2 mps 651 mmHg 26%
    20:00 +29°C° 0 mm 2 mps 651 mmHg 29%
    21:00 +28°C° 0 mm 2 mps 651 mmHg 31%
    22:00 +27°C° 0 mm 2 mps 651 mmHg 33%
    23:00 +26°C° 0 mm 2 mps 651 mmHg 35%

    30 January, Thursday

    Time Temperature Precipitation Wind Pressure Humidity
    00:00 +26°C° 0 mm 2 mps 651 mmHg 37%
    01:00 +25°C° 0 mm 2 mps 651 mmHg 38%
    02:00 +25°C° 0 mm 2 mps 651 mmHg 39%
    03:00 +24°C° 0 mm 2 mps 651 mmHg 40%
    04:00 +24°C° 0 mm 2 mps 651 mmHg 41%
    05:00 +24°C° 0 mm 2 mps 651 mmHg 42%
    06:00 +25°C° 0 mm 2 mps 652 mmHg 40%
    07:00 +26°C° 0 mm 2 mps 653 mmHg 38%
    08:00 +27°C° 0 mm 2 mps 653 mmHg 37%
    09:00 +29°C° 0 mm 3 mps 654 mmHg 34%
    10:00 +30°C° 0 mm 3 mps 654 mmHg 30%
    11:00 +33°C° 0 mm 4 mps 655 mmHg 27%
    12:00 +34°C° 0 mm 3 mps 655 mmHg 25%
    13:00 +35°C° 0 mm 3 mps 654 mmHg 23%
    14:00 +36°C° 0 mm 2 mps 654 mmHg 20%
    15:00 +36°C° 0 mm 2 mps 654 mmHg 20%
    16:00 +36°C° 0 mm 2 mps 653 mmHg 20%
    17:00 +35°C° 0 mm 2 mps 653 mmHg 20%
    18:00 +33°C° 0 mm 3 mps 653 mmHg 24%
    19:00 +30°C° 0 mm 3 mps 652 mmHg 28%
    20:00 +29°C° 0 mm 3 mps 652 mmHg 32%
    21:00 +28°C° 0 mm 3 mps 653 mmHg 35%
    22:00 +27°C° 0 mm 3 mps 653 mmHg 38%
    23:00 +26°C° 0 mm 3 mps 653 mmHg 41%

    31 January, Friday

    Time Temperature Precipitation Wind Pressure Humidity
    00:00 +25°C° 0.3 mm 4 mps 653 mmHg 50%
    01:00 +23°C° 0.3 mm 5 mps 653 mmHg 58%
    02:00 +22°C° 0.3 mm 5 mps 652 mmHg 66%
    03:00 +21°C° 0 mm 5 mps 652 mmHg 68%
    04:00 +21°C° 0 mm 5 mps 652 mmHg 70%
    05:00 +20°C° 0 mm 4 mps 652 mmHg 71%
    06:00 +21°C° 0 mm 5 mps 653 mmHg 67%
    07:00 +22°C° 0 mm 5 mps 653 mmHg 63%
    08:00 +23°C° 0 mm 5 mps 654 mmHg 59%
    09:00 +26°C° 0 mm 5 mps 654 mmHg 51%
    10:00 +28°C° 0 mm 5 mps 655 mmHg 43%
    11:00 +30°C° 0 mm 5 mps 656 mmHg 35%
    12:00 +32°C° 0 mm 4 mps 655 mmHg 33%
    13:00 +33°C° 0 mm 4 mps 654 mmHg 30%
    14:00 +34°C° 0 mm 4 mps 654 mmHg 27%
    15:00 +35°C° 0 mm 3 mps 653 mmHg 26%
    16:00 +35°C° 0 mm 3 mps 653 mmHg 24%
    17:00 +35°C° 0 mm 3 mps 652 mmHg 23%
    18:00 +33°C° 0 mm 3 mps 652 mmHg 27%
    19:00 +29°C° 0 mm 3 mps 652 mmHg 32%
    20:00 +27°C° 0 mm 2 mps 652 mmHg 36%
    21:00 +26°C° 0 mm 3 mps 652 mmHg 40%
    22:00 +25°C° 0 mm 3 mps 652 mmHg 43%
    23:00 +23°C° 0 mm 4 mps 653 mmHg 46%

    1 February, Saturday

    Time Temperature Precipitation Wind Pressure Humidity
    00:00 +22°C° 0.1 mm 3 mps 652 mmHg 50%
    01:00 +22°C° 0.1 mm 3 mps 652 mmHg 54%
    02:00 +21°C° 0.1 mm 2 mps 652 mmHg 57%
    03:00 +21°C° 0 mm 2 mps 652 mmHg 60%
    04:00 +20°C° 0 mm 2 mps 652 mmHg 63%
    05:00 +20°C° 0 mm 2 mps 651 mmHg 66%
    06:00 +21°C° 0 mm 3 mps 652 mmHg 59%
    07:00 +24°C° 0 mm 3 mps 653 mmHg 53%
    08:00 +25°C° 0 mm 3 mps 653 mmHg 47%
    09:00 +27°C° 0 mm 3 mps 654 mmHg 41%
    10:00 +29°C° 0 mm 3 mps 654 mmHg 35%
    11:00 +31°C° 0 mm 3 mps 654 mmHg 29%
    12:00 +33°C° 0 mm 3 mps 654 mmHg 27%
    13:00 +34°C° 0 mm 3 mps 654 mmHg 24%
    14:00 +35°C° 0 mm 3 mps 653 mmHg 22%
    15:00 +36°C° 0 mm 3 mps 653 mmHg 21%
    16:00 +36°C° 0 mm 3 mps 652 mmHg 21%
    17:00 +36°C° 0 mm 3 mps 652 mmHg 20%
    18:00 +33°C° 0 mm 3 mps 651 mmHg 24%
    19:00 +30°C° 0 mm 2 mps 651 mmHg 27%
    20:00 +28°C° 0 mm 2 mps 651 mmHg 30%
    21:00 +27°C° 0 mm 1 mps 651 mmHg 33%
    22:00 +26°C° 0 mm 1 mps 651 mmHg 36%
    23:00 +25°C° 0 mm 1 mps 651 mmHg 38%
    Show more